This demonstration page uses our WeatherBlox Daily Observations layout. Learn more.

Left ArrowRight Arrow

39.29038, -76.61219

Hourly Observations for December 14, 2020

Temp ( °F °C ) Dew Point ( °F °C ) Humidity (%) Winds ( mph kmh ) Pressure ( in mb ) Visibility ( mi km ) Precip ( " mm )
12:54 am 00:54 Cloudy 38 3.3 33 0.6 83 83 Calm 30.04 1017 10 16 0.00 0.00
1:54 am 01:54 Cloudy 41 5 34 1.1 76 76 Calm 30.03 1017 10 16 0.00 0.00
2:54 am 02:54 Cloudy 43 6.1 34 1.1 71 71 NE 5 7 30.01 1016 10 16 0.00 0.00
3:54 am 03:54 Cloudy 43 6.1 35 1.7 74 74 NNE 8 13 29.99 1016 10 16 0.00 0.00
4:54 am 04:54 Cloudy 43 6.1 34 1.1 71 71 ESE 5 7 29.99 1016 10 16 0.00 0.00
5:54 am 05:54 Cloudy with Light Rain 44 6.7 35 1.7 71 71 NE 6 9 29.97 1015 10 16 0.00 0.00
6:54 am 06:54 Cloudy with Light Rain 42 5.6 37 2.8 82 82 ENE 6 9 29.95 1014 7 11 0.05 1.27
7:54 am 07:54 Cloudy with Light Rain 41 5 38 3.3 89 89 N 6 9 29.94 1014 6 10 0.09 2.29
8:54 am 08:54 Cloudy with Rain 41 5 38 3.3 89 89 N 6 9 29.94 1014 3 5 0.13 3.30
9:54 am 09:54 Cloudy with Rain 41 5 38 3.3 89 89 NNE 5 7 29.94 1014 4 6 0.20 5.08
10:54 am 10:54 Cloudy with Rain 40 4.4 38 3.3 93 93 N 5 7 29.94 1014 3 5 0.24 6.10
11:35 am 11:35 Cloudy with Rain 40 4.4 38 3.3 93 93 NNW 3 6 29.93 1013 3 5 0.20 5.08
11:54 am 11:54 Cloudy with Rain 40 4.4 38 3.3 93 93 NNW 5 7 29.91 1013 3 5 0.27 6.86
12:42 pm 12:42 Cloudy with Light Rain 40 4.4 37 2.8 89 89 NNW 8 13 29.87 1011 3 5 0.10 2.54
12:48 pm 12:48 Cloudy with Light Rain 39 4 37 3 93 93 NNW 7 11 29.89 1012 3 5 0.11 2.79
12:49 pm 12:49 Cloudy with Light Rain 40 4.4 37 2.8 89 89 NNW 7 11 29.89 1012 3 5 0.11 2.79
1:41 pm 13:41 Cloudy with Light Rain 39 3.9 36 2.2 89 89 NW 8 13 29.91 1013 9 14 0.05 1.27
1:54 pm 13:54 Cloudy with Light Rain 39 3.9 35 1.7 86 86 WNW 9 15 29.90 1013 10 16 0.06 1.52
2:54 pm 14:54 Cloudy 39 3.9 35 1.7 86 86 NW 9 15 29.87 1012 10 16 0.02 0.51
3:54 pm 15:54 Partly Cloudy 40 4.4 35 1.7 83 83 NW 12 19 29.90 1013 10 16 0.00 0.00
4:54 pm 16:54 Mostly Cloudy 40 4.4 31 -0.6 70 70 NW 16 26 29.94 1014 10 16 0.00 0.00
5:54 pm 17:54 Partly Cloudy 39 3.9 30 -1.1 70 70 WNW 12 19 29.97 1015 10 16 0.00 0.00
6:54 pm 18:54 Partly Cloudy 37 2.8 29 -1.7 73 73 WNW 7 11 30.01 1016 10 16 0.00 0.00
7:54 pm 19:54 Partly Cloudy 36 2.2 28 -2.2 73 73 W 7 11 30.03 1017 10 16 0.00 0.00
8:54 pm 20:54 Mostly Clear 38 3.3 26 -3.3 62 62 WNW 14 22 30.06 1018 10 16 0.00 0.00
9:54 pm 21:54 Mostly Clear 38 3.3 25 -3.9 60 60 WNW 12 19 30.09 1019 10 16 0.00 0.00
10:54 pm 22:54 Partly Cloudy 36 2.2 24 -4.4 62 62 WNW 10 17 30.14 1021 10 16 0.00 0.00
11:54 pm 23:54 Partly Cloudy 35 1.7 22 -5.6 59 59 WNW 12 19 30.16 1021 10 16 0.00 0.00

Powered by AerisWeather